Back to catalog

STARLINK-37726

AliveCommunicationsSSO
NORAD 69124·PAYLOAD·🇺🇸 United States

Launched May 20, 2026 from Vandenberg Space Force Base

Loading…

Next Passes (next 24 hours)

TLE

FreshSource: CelesTrak SupGP

Epoch: Sep 14, 2026, 14:49 UTC

1 69124C 26110A   26257.61784722 -.00054501  00000+0 -16919-2 0  2572
2 69124  97.2847  92.8362 0001688  87.8413 142.6622 15.33464966    16

Track STARLINK-37726 in real time with AllMySat

Download on the App Store